DAL2554 KMIA-RJTT

Flight info

Callsign DAL2554
Flight time N/A
Altitude 34000
Route HURCN4 SMELZ DCT CTY DCT EUF DCT KYLEE DCT VUZ J151 FAM DCT IRK J45 ABR J70 DIK DCT YEA DCT OILRS DCT ANDIE DCT RORTU DCT MUXAT DCT HOLIE/N0497F360 DCT HOM DCT ILI DCT POETT DCT HODDY R341 HAVAM/N0496F380 R341 NATES R220 NOGAL/N0485F390 R220 NANNO/N0486F400 R220 NANAC Z22 LOSVA Y810 AKRIT Y807 POLIX
Aircraft A35K/H-SDE2E3GHIJ3J4J5LM1ORWXY/LB1D1

Departure

Time 2026-05-05 20:13
Airport Miami International Airport (KMIA)

Arrival

Time N/A
Airport Tokyo Haneda International Airport (RJTT)
Time Latitude Longitude Altitude Speed Heading
2026-05-05 19:52 25.79003 -80.27397 22 ft 0 kts 46°
2026-05-05 20:01 25.78997 -80.27404 24 ft 4 kts 46°
2026-05-05 20:01 25.78978 -80.27426 26 ft 4 kts 46°
2026-05-05 20:01 25.78973 -80.27432 26 ft 0 kts 46°
2026-05-05 20:01 25.78963 -80.27444 27 ft 4 kts 47°
2026-05-05 20:02 25.78949 -80.27461 28 ft 4 kts 55°
2026-05-05 20:02 25.78942 -80.27481 28 ft 6 kts 129°
2026-05-05 20:02 25.78963 -80.27496 28 ft 4 kts 155°
2026-05-05 20:02 25.78972 -80.27501 24 ft 1 kts 149°
2026-05-05 20:05 25.78961 -80.27500 29 ft 4 kts 174°
2026-05-05 20:05 25.78933 -80.27516 30 ft 10 kts 217°
2026-05-05 20:05 25.78895 -80.27592 27 ft 12 kts 254°
2026-05-05 20:06 25.78880 -80.27703 23 ft 16 kts 265°
2026-05-05 20:06 25.78872 -80.27836 28 ft 17 kts 266°
2026-05-05 20:06 25.78881 -80.27957 28 ft 15 kts 289°
2026-05-05 20:06 25.78929 -80.28059 28 ft 15 kts 299°
2026-05-05 20:07 25.78983 -80.28160 27 ft 15 kts 301°
2026-05-05 20:07 25.79035 -80.28262 27 ft 15 kts 300°
2026-05-05 20:07 25.79088 -80.28366 30 ft 16 kts 300°
2026-05-05 20:07 25.79149 -80.28478 24 ft 18 kts 304°
2026-05-05 20:08 25.79221 -80.28599 22 ft 20 kts 302°
2026-05-05 20:08 25.79292 -80.28730 20 ft 21 kts 300°
2026-05-05 20:08 25.79362 -80.28867 21 ft 19 kts 298°
2026-05-05 20:08 25.79423 -80.28990 22 ft 18 kts 298°
2026-05-05 20:09 25.79482 -80.29109 23 ft 17 kts 299°
2026-05-05 20:09 25.79537 -80.29219 28 ft 15 kts 299°
2026-05-05 20:09 25.79589 -80.29320 29 ft 15 kts 300°
2026-05-05 20:09 25.79644 -80.29426 23 ft 16 kts 300°
2026-05-05 20:10 25.79700 -80.29534 22 ft 16 kts 300°
2026-05-05 20:10 25.79757 -80.29645 20 ft 17 kts 300°
2026-05-05 20:10 25.79819 -80.29766 18 ft 18 kts 300°
2026-05-05 20:10 25.79880 -80.29884 19 ft 17 kts 299°
2026-05-05 20:11 25.79937 -80.29998 19 ft 17 kts 299°
2026-05-05 20:11 25.79999 -80.30095 21 ft 14 kts 330°
2026-05-05 20:11 25.80074 -80.30069 20 ft 12 kts 62°
2026-05-05 20:11 25.80080 -80.30000 19 ft 11 kts 88°
2026-05-05 20:12 25.80090 -80.29732 21 ft 60 kts 88°
2026-05-05 20:12 25.80115 -80.29084 27 ft 106 kts 88°
2026-05-05 20:12 25.80155 -80.28120 21 ft 147 kts 88°
2026-05-05 20:12 25.80207 -80.26868 125 ft 171 kts 87°
2026-05-05 20:13 25.80260 -80.25557 534 ft 170 kts 88°
2026-05-05 20:13 25.80370 -80.24156 698 ft 197 kts 85°
2026-05-05 20:13 25.80467 -80.22501 793 ft 228 kts 87°
2026-05-05 20:13 25.80533 -80.20672 1065 ft 243 kts 88°
2026-05-05 20:14 25.80613 -80.18765 1537 ft 250 kts 83°
2026-05-05 20:14 25.81229 -80.16961 1995 ft 256 kts 50°